Pellston, MI

5:30 AM EST on January 22, 2017 (GMT -0500)
Pellston Regional Airport Of Emmet County

Weather History for KPLN - October, 2013

Change the Weather History Date:

Monday, October 14, 2013

  Actual Average Record
Temperature  
Mean Temperature 44 °F -  
Max Temperature 60 °F 56 °F 78 °F (1968)
Min Temperature 27 °F 39 °F 19 °F (2002)
Degree Days  
Heating Degree Days 22    
Moisture  
Dew Point 33 °F    
Average Humidity 76    
Maximum Humidity 96    
Minimum Humidity 41    
Precipitation  
Precipitation 0.00 in - - ()
Sea Level Pressure  
Sea Level Pressure 30.42 in    
Wind  
Wind Speed 1 mph (ENE)    
Max Wind Speed 8 mph    
Max Gust Speed -    
Visibility 10 miles    
Events      
Averages and records for this station are not official NWS values.
T = Trace of Precipitation, MM = Missing Value Source: NWS Daily Summary

Daily Weather History Graph

Daily Weather History Graph

Search for Another Location

Airport or City:

Trip Planner

Search our weather history database for the weather conditions in past years. The results will help you decide how hot, cold, wet, or windy it might be!

Date:

Astronomy

Oct. 14, 2013 Rise Set
Actual Time 7:54 AM EDT 6:54 PM EDT
Civil Twilight 7:24 AM EDT 7:24 PM EDT
Nautical Twilight 6:50 AM EDT 7:59 PM EDT
Astronomical Twilight 6:15 AM EDT 8:33 PM EDT
Moon 4:35 PM EDT (10/14) 2:57 AM EDT (10/14)
Length of Visible Light 12h 00m
Length of Day
11h 00m
Waxing Gibbous, 79% of the Moon is Illuminated
Oct 14
Waxing Gibbous
Oct 18
Full
Oct 26
Last Quarter
Nov 3
New
Nov 10
First Quarter

Hourly Weather History & Observations

Time (EDT) Temp. Windchill Dew Point Humidity Pressure Visibility Wind Dir Wind Speed Gust Speed Precip Events Conditions
12:54 AM 30.9 °F - 30.0 °F 96% 30.42 in 10.0 mi Calm Calm - N/A   Clear
1:54 AM 30.0 °F - 28.9 °F 96% 30.44 in 10.0 mi Calm Calm - N/A   Clear
2:54 AM 30.0 °F - 28.0 °F 92% 30.45 in 10.0 mi Calm Calm - N/A   Clear
3:54 AM 28.9 °F - 27.0 °F 92% 30.45 in 10.0 mi Calm Calm - N/A   Clear
4:54 AM 28.9 °F - 27.0 °F 92% 30.46 in 10.0 mi Calm Calm - N/A   Clear
5:54 AM 28.0 °F - 26.1 °F 92% 30.47 in 10.0 mi Calm Calm - N/A   Clear
6:54 AM 28.0 °F - 26.1 °F 92% 30.48 in 10.0 mi Calm Calm - N/A   Clear
7:54 AM 27.0 °F 23.0 °F 25.0 °F 92% 30.47 in 10.0 mi SSE 3.5 mph - N/A   Clear
8:54 AM 33.1 °F - 32.0 °F 96% 30.47 in 10.0 mi Calm Calm - N/A   Clear
9:54 AM 41.0 °F - 37.9 °F 89% 30.48 in 10.0 mi Calm Calm - N/A   Clear
10:54 AM 52.0 °F - 43.0 °F 71% 30.45 in 10.0 mi Calm Calm - N/A   Clear
11:54 AM 55.0 °F - 37.9 °F 53% 30.45 in 10.0 mi Calm Calm - N/A   Clear
12:54 PM 57.9 °F - 37.0 °F 46% 30.44 in 10.0 mi Calm Calm - N/A   Clear
1:54 PM 60.1 °F - 39.0 °F 46% 30.43 in 10.0 mi NNW 5.8 mph - N/A   Partly Cloudy
2:54 PM 59.0 °F - 36.0 °F 42% 30.41 in 10.0 mi Calm Calm - N/A   Clear
3:54 PM 59.0 °F - 37.9 °F 46% 30.38 in 10.0 mi NNE 8.1 mph - N/A   Clear
4:54 PM 60.1 °F - 36.0 °F 41% 30.36 in 10.0 mi NE 5.8 mph - N/A   Clear
5:54 PM 57.0 °F - 35.1 °F 44% 30.37 in 10.0 mi ENE 4.6 mph - N/A   Clear
6:54 PM 52.0 °F - 39.0 °F 61% 30.36 in 10.0 mi East 3.5 mph - N/A   Clear
7:54 PM 44.1 °F - 37.0 °F 76% 30.37 in 10.0 mi Calm Calm - N/A   Clear
8:54 PM 39.0 °F - 36.0 °F 89% 30.35 in 10.0 mi Calm Calm - N/A   Clear
9:54 PM 37.0 °F - 35.1 °F 93% 30.34 in 10.0 mi Calm Calm - N/A   Clear
10:54 PM 34.0 °F - 33.1 °F 96% 30.34 in 10.0 mi Calm Calm - N/A   Clear
11:54 PM 30.9 °F - 30.0 °F 96% 30.33 in 10.0 mi Calm Calm - N/A   Clear